Wind_Speed
39 38 37 36 35 36 38 39 38 37 36 37 37 37 37 38 37 36 36 36 36 37 37 35 35 36 36 34 33 32 30 28 27 27 27 25 24 24 23 24 24 21 19 18 18 18 17 16 15 14 14 14 12 11 10 10 9 9 7 8 9 10 10 11 10 10 11 12 12 13 13 13 15 15 14 14 15 16 18 20 21 22 24 24 24
39 38 36 36 37 37 39 40 38 36 36 37 39 38 38 38 38 37 37 37 37 38 38 36 36 36 36 35 34 33 32 30 29 29 29 28 26 25 25 24 25 24 22 20 21 20 18 17 16 16 16 16 14 11 11 12 11 10 8 9 12 12 12 13 12 10 10 12 14 16 16 16 17 18 16 16 17 18 18 18 19 21 22 24 24
39 38 37 37 37 38 40 40 38 37 37 38 40 40 39 38 38 39 39 38 37 38 38 38 37 37 37 35 35 35 34 32 31 30 31 31 29 28 27 27 26 26 25 24 23 22 21 19 17 15 15 15 14 12 12 14 13 12 11 10 11 12 12 11 11 11 12 14 16 17 18 18 20 20 19 18 18 18 19 19 19 20 21 22 23
38 38 38 37 37 39 40 39 38 38 38 39 41 42 40 39 40 40 39 38 38 37 37 38 38 38 38 37 36 36 35 34 33 32 32 32 32 31 30 29 28 27 27 26 24 23 23 22 20 17 15 15 15 15 15 16 15 14 13 13 12 13 12 11 12 12 13 15 17 18 19 20 21 22 22 21 20 19 18 19 19 21 22 21 22
37 38 38 38 38 39 40 39 39 39 40 40 42 42 40 39 41 41 40 39 38 38 38 38 38 39 39 39 38 37 37 36 36 35 34 33 33 33 32 31 30 28 26 26 25 24 23 23 22 19 18 18 18 17 17 17 17 16 15 16 16 15 14 13 12 12 14 16 19 20 20 20 23 25 24 23 21 20 20 19 20 22 23 22 22
37 37 38 38 39 40 40 39 40 41 42 42 42 41 40 40 40 41 41 39 38 38 38 39 39 40 40 40 39 39 38 38 38 36 35 34 33 33 33 32 32 30 27 26 25 25 24 23 22 21 21 21 20 18 17 17 17 16 16 16 16 16 15 14 13 14 15 17 19 20 22 22 23 25 26 23 20 20 22 22 22 22 22 22 23
36 37 38 39 39 40 41 41 41 42 43 44 42 40 40 40 40 41 42 40 39 39 39 40 40 40 39 39 39 39 38 38 38 37 36 35 34 34 33 32 32 31 29 27 26 25 25 24 23 23 23 22 21 19 18 18 17 16 16 16 16 16 16 16 15 16 17 17 18 20 22 23 23 25 26 22 19 20 22 23 23 22 22 23 23
36 36 38 39 40 41 42 42 43 44 45 45 42 41 41 41 41 41 41 41 41 41 41 40 39 38 38 38 38 38 38 38 38 38 37 36 35 34 33 32 31 30 29 27 26 25 25 25 25 24 23 23 21 20 19 19 19 18 18 18 18 18 19 19 18 18 18 17 18 19 20 21 23 24 24 21 20 21 20 19 20 21 21 21 20
37 37 38 40 41 42 42 42 42 44 44 44 43 43 42 42 41 40 40 41 41 40 39 39 38 37 37 37 37 37 38 38 39 39 38 36 35 34 33 32 32 31 29 27 25 24 24 25 25 24 23 22 21 20 20 20 21 20 20 19 20 20 21 21 20 20 18 16 17 19 19 20 22 22 22 22 20 19 17 16 16 17 18 19 21
37 37 39 41 42 42 42 42 42 43 44 44 44 44 43 42 40 39 39 40 39 38 36 35 36 36 35 35 36 36 37 38 38 39 39 38 36 34 33 32 32 30 29 28 26 25 25 25 25 24 24 23 22 22 21 22 22 21 20 21 22 22 22 21 22 21 17 16 18 19 17 18 21 22 21 20 18 17 16 16 15 16 18 19 21
38 39 39 41 41 42 42 42 42 43 44 44 43 43 42 41 39 37 37 36 36 35 34 33 33 34 34 34 34 35 36 37 37 38 39 38 36 35 33 33 31 30 28 27 27 27 26 25 24 24 24 23 23 21 21 21 21 21 21 22 23 23 22 22 22 20 19 18 19 19 18 18 21 21 20 19 19 18 17 16 16 17 17 14 14
39 40 40 40 41 41 42 42 42 43 43 42 41 41 40 38 36 34 32 32 33 32 32 32 32 32 33 33 34 35 35 35 36 37 38 38 37 34 33 32 31 29 28 27 27 27 27 26 24 23 23 22 20 19 19 20 20 21 21 21 22 23 22 22 23 23 23 20 19 19 20 20 20 21 21 20 20 19 17 17 17 16 14 13 14
40 40 40 41 42 42 42 42 42 42 41 41 40 39 37 35 33 32 30 29 29 30 30 30 31 31 32 32 33 34 34 34 34 35 37 38 36 34 32 30 29 29 28 27 27 27 27 26 24 23 22 20 18 16 17 19 20 20 20 21 22 23 23 24 25 26 25 23 22 23 24 23 22 23 23 21 19 19 18 18 17 15 15 17 20
39 41 41 42 43 42 42 41 40 39 40 39 38 36 35 33 32 31 29 27 27 29 30 30 30 31 31 32 32 33 33 33 33 33 34 36 36 34 32 30 29 28 28 28 28 27 27 26 24 23 21 20 20 19 19 20 20 20 20 21 23 23 23 23 23 23 23 23 23 24 24 23 23 24 24 22 21 20 18 17 17 17 20 23 24
37 40 41 41 42 42 41 40 39 38 38 38 36 34 33 32 30 29 29 29 29 29 30 29 29 29 30 31 31 30 30 30 30 30 31 33 34 35 33 31 29 27 27 29 29 27 26 24 23 22 20 19 20 21 21 21 21 21 21 22 23 22 20 20 21 21 20 19 21 23 23 22 21 21 21 20 18 18 17 17 19 22 24 24 24
35 38 40 41 41 42 42 40 38 38 37 36 34 33 32 30 29 29 29 29 28 28 29 29 28 28 28 29 29 27 26 27 27 28 29 31 34 36 35 32 28 26 25 26 27 26 25 23 22 20 19 19 20 21 21 21 21 22 22 22 23 21 19 19 19 19 19 20 21 22 20 18 16 16 15 15 15 17 18 20 22 23 22 20 22
34 37 40 42 42 41 41 40 38 37 36 35 32 31 31 31 31 31 29 27 27 27 28 28 28 27 27 27 27 26 25 25 26 27 29 31 34 36 36 33 28 24 21 21 23 23 22 20 19 18 19 21 21 20 20 21 21 21 22 21 20 19 18 19 18 16 16 16 15 13 12 10 10 12 15 17 19 21 21 20 22 22 19 16 16
35 37 40 43 42 41 41 40 38 37 35 34 33 32 32 32 32 31 29 27 27 26 26 26 26 26 26 25 26 25 25 24 25 25 27 30 32 34 35 34 29 25 22 20 20 21 20 18 17 18 20 21 21 21 21 21 21 20 19 18 17 17 17 17 16 15 14 13 12 11 12 13 15 17 18 18 18 18 20 21 22 23 20 17 15
37 38 41 43 40 39 39 39 38 37 36 35 34 34 32 31 31 29 28 27 25 25 24 24 23 24 24 23 23 24 24 23 23 24 25 27 30 33 33 31 28 26 24 21 19 20 20 19 18 19 21 21 21 22 21 20 19 17 15 14 15 16 16 15 14 14 15 15 16 16 17 18 19 17 15 14 14 15 17 19 19 20 20 19 17
41 39 39 39 38 38 39 40 40 39 38 36 34 33 32 30 29 28 27 24 23 23 23 23 23 23 23 22 23 23 22 23 23 24 25 26 29 32 32 29 27 26 24 22 21 21 20 20 20 21 21 21 21 21 19 17 15 13 13 14 15 16 16 15 15 15 15 17 17 18 19 17 14 12 12 13 14 14 13 11 10 11 12 13 14
37 35 35 36 38 39 40 41 41 39 37 36 33 31 31 29 28 26 25 23 22 21 22 23 23 23 23 22 22 21 22 22 22 24 25 27 29 32 31 29 27 25 23 22 22 22 21 21 21 22 21 21 20 19 16 14 12 12 13 15 16 17 17 17 17 17 17 17 17 17 15 12 10 11 13 13 12 11 9 8 11 14 13 13 14
31 33 35 36 36 38 39 39 39 37 35 35 33 30 28 27 26 24 23 23 22 21 21 23 24 24 24 23 22 22 22 21 21 22 24 26 30 32 31 29 26 24 22 22 22 22 22 21 21 20 19 19 18 16 13 12 11 11 12 13 14 15 16 16 17 17 17 16 15 12 10 9 10 11 11 11 10 10 12 15 18 20 19 18 16
34 33 33 33 33 35 37 38 38 37 35 34 32 29 27 25 24 24 23 23 22 21 21 22 22 22 23 23 22 22 21 20 19 20 22 24 27 31 31 27 24 23 22 23 23 23 21 20 19 17 16 16 15 13 11 11 11 10 10 11 12 13 14 14 15 15 15 13 11 9 9 8 10 11 12 12 12 14 18 20 21 19 18 18 17
36 34 33 33 33 35 36 36 36 35 34 33 31 29 27 26 25 24 23 23 22 21 20 20 19 19 20 21 20 20 18 18 17 18 20 22 25 28 29 25 21 21 21 22 22 22 19 17 16 15 14 14 13 12 12 12 10 9 9 10 11 11 12 12 12 12 11 9 8 9 10 10 11 12 11 11 13 17 20 20 18 16 16 17 18
36 36 35 33 34 35 34 34 34 34 33 33 32 30 28 27 26 23 23 24 23 21 19 18 18 18 19 19 18 18 17 17 16 15 17 20 22 25 27 25 21 20 20 19 18 18 16 14 13 13 14 14 14 14 13 11 9 8 8 9 9 9 8 9 9 9 9 10 11 13 14 13 12 10 9 11 15 17 18 18 17 17 17 18 20
35 35 34 34 35 36 34 33 32 31 31 30 30 29 28 28 26 24 23 25 25 23 21 20 18 18 18 18 18 19 18 18 18 17 17 19 20 22 25 25 22 19 18 17 15 14 14 13 12 14 16 16 15 14 12 10 9 9 9 9 8 8 8 10 11 11 12 14 15 16 16 13 10 9 10 14 16 16 16 18 19 19 18 20 22
32 31 30 31 32 33 34 33 31 30 29 29 29 28 28 28 27 24 24 26 25 24 23 22 20 19 19 19 20 21 22 21 21 20 19 20 20 21 24 26 25 20 17 16 15 14 13 13 12 14 15 14 13 11 10 9 10 11 11 11 10 10 10 11 12 13 14 16 17 17 15 11 8 10 13 15 15 14 15 18 19 19 20 22 23
31 30 29 29 28 29 32 33 31 29 29 29 29 29 29 29 27 25 26 28 27 26 24 23 22 21 21 22 22 21 22 22 22 21 21 22 21 22 24 25 26 24 20 17 15 14 14 14 14 14 14 12 11 9 9 10 11 12 13 13 12 12 13 14 15 16 18 19 16 12 9 8 9 12 13 12 12 14 15 17 17 19 22 22 22
32 30 29 28 27 27 30 31 30 30 31 30 29 28 29 29 28 26 25 26 26 25 23 21 21 20 20 21 23 22 21 22 22 21 20 21 21 22 23 24 26 27 24 20 17 16 16 16 16 15 13 11 10 10 11 12 13 13 15 15 15 15 15 17 19 17 14 11 8 5 5 8 9 10 10 11 13 15 15 16 18 20 22 21 21
29 27 27 27 27 28 28 28 30 33 34 33 30 27 26 27 28 26 24 23 22 21 20 19 18 18 18 20 23 24 23 22 21 19 18 19 19 20 21 22 23 25 24 21 19 18 18 18 16 14 13 12 13 14 14 14 15 16 17 17 17 17 18 18 16 11 7 3 2 4 6 6 8 9 11 13 15 15 15 17 19 20 20 21 22
26 25 25 26 28 28 27 28 30 32 32 32 32 30 27 25 24 23 24 25 23 21 19 18 16 15 16 18 23 25 25 22 20 18 17 16 16 18 19 20 21 23 22 21 20 20 19 17 15 14 14 15 16 16 15 16 19 20 19 17 18 19 18 14 10 7 3 2 5 5 5 6 8 11 13 14 14 15 16 18 18 19 20 21 21
25 24 24 26 28 26 26 28 30 30 29 30 31 31 29 25 21 19 20 23 23 21 19 18 16 13 11 16 23 26 24 20 18 17 15 14 14 16 17 17 19 22 21 20 21 20 18 16 15 14 15 16 17 16 15 16 17 16 14 13 13 13 13 11 7 2 2 3 5 5 5 7 9 12 13 13 14 16 18 18 18 19 21 20 19
27 26 26 27 26 25 26 28 28 28 28 28 28 28 28 25 21 19 19 19 20 20 18 16 15 12 10 15 23 25 22 19 17 16 15 14 14 16 16 15 17 20 22 22 21 18 16 14 12 11 11 12 12 9 8 7 6 6 6 4 3 5 7 7 5 3 3 3 4 4 4 6 9 11 12 13 15 17 17 17 18 20 19 18 20
28 29 29 27 25 25 26 27 26 26 27 27 27 27 27 26 24 22 19 18 18 17 16 14 13 11 11 15 21 22 21 19 17 17 17 16 15 16 18 18 18 20 22 23 21 17 13 11 9 6 4 4 4 2 2 3 4 4 4 4 5 7 8 7 4 2 3 4 4 4 4 7 10 11 12 14 16 15 15 16 18 19 18 19 22
28 29 29 27 26 27 27 26 25 25 25 26 27 27 27 27 27 24 22 19 18 16 14 13 11 11 12 15 18 20 20 19 18 18 18 18 17 18 20 20 21 22 23 22 20 16 11 8 6 3 3 5 4 4 4 4 3 3 2 3 2 3 5 3 1 2 5 5 5 6 7 8 9 11 14 15 14 13 15 18 18 17 19 22 24
29 29 28 26 25 26 28 28 28 27 26 25 25 25 26 26 25 23 21 20 19 17 15 13 12 13 14 16 18 19 19 18 18 18 19 19 19 20 21 22 23 23 23 21 18 15 12 9 6 5 6 6 5 3 3 2 2 2 2 3 3 0 2 2 3 4 6 6 5 6 6 5 8 11 12 12 12 13 16 18 18 18 21 23 23
28 27 25 23 24 26 29 30 29 28 26 25 24 23 23 24 23 21 20 19 19 18 16 16 16 16 17 17 19 20 19 19 19 18 18 19 19 20 21 23 24 24 22 20 17 15 12 10 8 7 7 6 5 4 2 1 0 1 3 3 1 2 2 4 4 5 5 5 6 6 6 7 9 11 10 10 12 14 16 17 19 21 22 22 21
26 25 23 23 25 28 29 29 28 27 26 25 24 22 22 22 22 21 20 19 19 18 17 18 19 19 20 20 20 20 20 20 20 20 20 20 21 20 20 21 21 21 19 16 14 13 11 10 10 9 7 6 5 4 3 3 4 4 3 2 2 3 2 3 4 4 3 5 8 8 7 7 8 7 8 10 13 14 15 18 21 21 21 21 21
23 23 22 25 27 28 29 29 28 27 26 25 22 22 22 23 22 21 20 19 19 18 18 19 19 20 22 22 21 20 20 20 20 21 22 22 22 21 19 18 17 16 15 14 14 13 12 12 12 10 9 7 5 5 4 5 7 8 8 6 6 6 4 3 3 3 3 6 8 6 5 5 6 6 8 11 13 14 17 19 20 19 20 21 21
23 22 23 25 27 27 28 29 27 25 25 23 21 21 22 23 22 21 20 20 19 19 19 20 20 21 23 24 22 21 21 21 22 23 23 24 24 23 21 18 15 13 12 13 15 16 16 15 13 11 9 7 5 5 6 8 10 11 9 7 7 7 4 3 4 4 4 6 8 6 4 4 4 6 9 11 12 15 18 17 17 18 19 20 20
22 22 22 24 25 26 27 27 25 23 22 21 21 21 21 22 23 23 22 21 20 20 20 20 20 21 23 23 23 22 21 22 22 23 23 24 24 24 23 20 16 12 10 10 13 16 18 17 14 11 9 6 6 8 9 11 12 12 10 9 8 8 6 4 3 2 3 6 7 4 2 2 4 7 9 11 12 15 16 15 16 18 18 18 19
21 22 23 23 24 24 24 23 22 20 18 19 20 20 20 21 24 25 24 22 21 21 20 19 17 18 19 21 22 22 21 21 21 21 22 22 22 22 22 21 18 16 13 10 11 16 18 16 13 11 8 7 9 11 13 14 13 13 13 11 9 8 6 5 4 3 3 4 2 1 1 2 5 7 8 10 13 14 14 15 17 18 18 18 19
22 22 21 21 21 22 21 21 20 17 16 17 18 18 20 23 25 25 24 23 22 21 20 19 17 16 17 20 23 21 18 18 18 18 18 18 19 19 19 18 18 17 14 11 12 17 17 14 11 9 7 8 11 12 14 13 11 10 10 9 8 7 6 6 6 5 3 2 2 1 2 4 6 7 9 10 12 13 14 15 17 17 17 18 18
20 20 17 17 18 18 18 18 18 17 17 18 19 20 23 25 25 24 24 23 23 22 21 19 18 18 19 22 24 22 18 16 17 16 15 15 15 14 14 13 14 15 13 11 13 16 15 11 10 8 7 8 10 11 11 10 8 7 8 7 6 7 7 6 6 5 4 3 4 3 5 6 7 8 9 9 11 13 14 15 16 17 17 17 17
19 19 17 17 17 16 16 18 19 20 20 20 20 20 21 20 20 22 23 24 24 23 21 20 20 21 22 24 25 24 21 18 17 15 14 14 15 15 13 11 10 12 13 13 14 15 13 11 10 8 7 7 8 8 8 8 6 6 6 6 5 6 5 4 5 5 4 5 5 5 6 7 8 8 8 9 11 13 14 14 15 16 17 16 17
15 16 17 17 18 19 20 20 21 22 22 21 20 19 17 16 16 17 19 23 25 24 21 20 20 21 22 24 24 23 22 20 19 16 13 13 15 17 17 15 13 13 15 15 14 14 14 14 12 8 7 7 7 6 5 5 4 4 4 4 4 6 5 4 4 4 4 5 6 6 7 9 10 10 9 9 11 12 13 13 14 15 15 15 17
11 17 21 21 20 20 19 19 19 20 19 18 18 17 15 14 14 13 14 18 22 23 22 20 19 18 20 21 20 19 19 19 20 18 16 14 13 15 17 19 20 19 17 16 15 16 15 13 11 9 8 7 6 5 4 4 5 7 7 6 6 7 7 6 5 5 5 6 7 9 11 12 13 10 8 7 9 11 13 13 13 13 15 16 17
11 15 20 22 22 20 17 15 15 16 17 15 14 14 13 13 13 12 12 14 18 21 22 20 18 17 17 17 16 15 15 15 15 14 15 15 13 12 14 18 22 21 19 17 17 15 12 11 10 11 11 8 6 5 5 6 7 8 7 6 6 8 8 8 8 8 9 10 11 13 14 13 11 8 6 6 8 10 12 12 11 13 15 15 17
10 12 14 16 16 14 12 12 12 13 14 14 13 12 12 12 13 13 13 13 14 16 17 19 19 19 17 15 15 14 14 14 14 14 14 16 15 13 13 17 20 19 18 18 16 13 11 13 14 14 13 10 7 6 5 6 7 7 6 7 8 8 8 8 9 10 10 12 13 13 13 11 9 8 7 6 7 9 11 11 11 13 14 15 18
8 9 10 12 11 10 9 10 10 9 9 10 10 10 11 12 13 14 14 13 12 13 12 13 16 18 18 18 18 18 17 17 18 18 16 16 15 13 14 17 19 18 17 17 15 13 13 16 17 16 14 12 9 7 6 6 6 7 7 8 8 8 8 8 9 10 11 12 13 12 11 10 10 8 7 5 6 9 10 9 10 12 14 16 20
9 8 8 9 9 8 9 10 9 6 5 7 8 7 8 11 14 15 14 12 13 14 12 10 11 15 16 15 14 14 15 16 18 18 17 17 18 18 18 19 20 19 18 17 16 14 15 17 17 16 13 11 9 7 6 6 7 8 8 9 9 9 9 10 10 11 12 13 13 11 10 9 8 8 6 4 6 7 8 9 10 13 15 16 17
Wind_Direction
198 199 199 198 197 197 197 199 199 197 196 197 199 201 201 202 202 201 201 202 201 199 197 197 197 196 195 195 195 196 197 197 197 197 198 200 203 203 203 203 205 208 210 211 211 213 219 223 224 220 219 223 227 223 220 223 221 218 224 228 222 219 222 224 228 249 268 275 279 282 284 282 282 285 286 284 283 286 288 286 281 278 278 278 279
198 198 198 197 197 197 198 199 199 196 195 198 201 202 202 202 202 202 202 202 201 200 199 198 197 195 194 196 197 197 198 199 198 198 198 199 202 204 205 206 207 208 211 212 211 212 218 224 225 220 217 218 216 211 215 218 217 219 222 225 229 228 222 224 228 239 260 270 274 280 283 283 284 288 288 285 284 285 284 282 279 278 277 275 277
198 197 197 198 198 197 198 199 197 195 196 199 203 204 203 202 202 202 203 203 202 201 200 199 198 197 197 197 199 199 199 200 200 200 200 200 202 204 205 208 209 209 213 217 215 214 217 222 224 219 213 212 211 210 213 215 216 217 220 223 223 217 213 218 230 242 256 267 273 278 283 285 286 289 292 292 293 293 290 286 280 278 279 278 278
197 197 197 197 198 198 199 198 196 195 197 200 204 205 204 203 203 204 204 204 204 203 203 202 201 200 200 200 200 200 199 200 200 202 202 202 203 205 206 208 210 212 216 220 220 218 218 222 226 224 218 214 213 215 215 216 218 217 216 218 216 215 220 228 242 253 258 266 274 278 282 286 288 290 294 296 297 297 298 297 290 282 280 279 279
196 196 197 196 197 198 199 197 195 196 198 202 206 206 204 204 205 205 205 205 205 205 204 204 203 202 202 202 202 202 201 200 200 201 204 205 206 208 209 209 211 214 217 220 221 220 221 224 226 224 221 218 215 216 216 214 215 217 218 221 223 225 229 230 237 247 252 260 271 279 283 287 289 291 294 295 295 297 299 298 292 285 281 280 281
196 196 196 196 197 199 198 196 196 197 199 203 206 206 205 206 206 206 206 206 206 206 205 205 204 204 204 204 204 204 203 202 201 201 203 206 208 210 212 213 213 215 217 218 218 219 221 224 226 224 222 221 217 215 216 214 215 221 223 224 226 225 223 224 231 240 247 255 266 276 284 288 288 291 296 294 290 292 296 295 292 285 277 277 283
196 196 196 197 198 199 198 197 197 198 200 204 206 206 206 207 207 207 207 207 206 207 207 206 206 206 206 205 205 205 203 202 201 200 202 205 207 209 212 214 216 218 220 220 220 222 225 228 229 227 225 225 224 221 220 219 219 221 222 226 227 223 224 232 238 241 246 252 261 269 279 287 287 288 293 294 287 287 288 286 287 287 283 281 285
195 195 196 198 199 200 199 199 198 199 202 205 206 207 207 208 209 209 208 208 208 209 208 208 207 207 206 206 206 205 203 202 201 200 202 204 206 209 211 213 215 217 220 223 224 225 227 228 229 227 227 227 225 222 222 219 216 218 222 226 226 225 234 243 245 247 248 250 259 267 273 281 283 283 286 287 284 285 286 283 283 288 292 290 290
194 195 197 199 201 201 200 200 199 201 203 205 206 208 209 209 210 210 209 209 210 211 210 209 207 206 206 206 206 205 204 203 202 201 201 202 204 207 209 212 214 215 217 220 222 223 224 225 227 227 227 226 223 224 227 224 221 223 224 224 227 233 242 247 248 250 251 253 263 271 274 276 278 280 282 282 282 285 292 293 288 289 294 295 295
193 194 197 200 201 201 201 200 200 201 203 205 207 208 209 210 210 210 210 211 211 211 211 210 208 207 206 205 205 205 205 205 204 203 202 202 203 205 207 210 212 214 217 219 222 225 225 227 230 230 228 228 229 230 231 230 230 231 231 232 237 240 243 247 250 253 258 263 269 272 272 271 275 279 279 280 285 290 294 293 291 295 299 300 298
193 195 198 200 200 200 201 201 201 202 204 205 207 208 209 210 211 211 210 210 211 211 210 210 209 208 207 205 205 205 206 207 206 205 204 203 204 205 206 209 211 214 218 220 223 226 226 227 229 228 226 228 230 232 235 237 239 241 241 243 245 247 248 251 256 263 268 268 269 270 265 265 275 280 279 282 289 290 288 288 292 297 299 298 297
193 196 198 199 199 199 200 201 202 203 204 205 206 208 209 210 210 210 210 209 208 209 208 208 208 208 207 206 205 206 207 208 207 206 205 205 205 206 207 209 212 214 217 220 224 225 225 223 223 224 224 224 227 231 236 242 247 250 251 252 253 256 258 261 266 272 273 270 269 269 267 268 276 280 282 287 289 286 284 287 291 290 287 286 285
194 196 198 198 198 199 200 201 202 203 204 205 206 207 207 208 208 208 207 207 206 205 206 207 207 206 205 205 206 207 208 208 208 207 206 206 206 206 208 210 213 216 217 219 223 225 223 220 219 221 222 221 225 233 241 247 252 255 257 259 261 264 267 270 273 274 273 272 270 270 274 276 278 283 287 287 283 282 284 285 284 278 277 283 285
195 196 197 198 198 198 199 200 201 202 202 203 205 205 205 205 205 205 204 204 204 203 204 206 206 205 204 205 205 206 207 207 207 207 205 205 206 208 209 210 212 216 218 220 223 224 223 221 220 221 222 223 228 237 244 250 254 255 256 260 264 269 273 277 279 278 277 275 272 274 281 284 282 286 290 286 281 282 282 280 280 282 285 288 289
196 196 197 198 198 198 198 199 199 199 200 201 201 201 202 201 199 200 203 205 205 203 203 203 203 202 203 204 204 204 204 206 207 206 206 206 208 211 212 211 212 217 221 222 223 224 225 224 221 218 221 226 231 238 244 249 252 254 258 263 267 271 276 281 283 282 281 281 281 282 285 286 285 287 288 286 283 281 279 278 284 290 290 289 289
196 195 196 198 198 198 197 196 196 195 196 197 197 196 196 195 194 197 201 203 202 200 200 200 199 198 199 201 200 199 200 203 205 206 208 209 210 212 213 212 211 216 219 220 221 224 225 222 217 215 221 231 237 240 243 247 250 255 262 267 270 274 278 279 278 279 281 284 285 285 284 285 287 287 288 289 287 287 286 285 288 290 285 282 285
197 194 196 199 198 197 195 193 192 191 191 191 190 190 190 190 192 195 195 192 192 194 195 196 197 196 195 194 193 192 193 198 202 205 207 209 209 211 213 212 210 212 214 215 217 218 217 216 216 219 225 233 237 239 240 244 249 257 265 268 271 274 276 275 273 274 278 280 279 280 282 287 293 294 296 295 293 295 293 287 290 290 282 276 281
198 196 197 199 198 195 193 190 187 185 185 186 185 184 185 185 188 192 190 187 188 190 192 193 195 196 195 193 192 191 191 195 199 202 206 208 207 209 212 213 211 210 211 213 213 211 211 215 222 226 228 230 235 239 242 247 252 259 264 266 267 268 268 269 269 266 265 267 270 274 279 289 297 300 299 295 292 292 288 287 292 290 279 274 278
199 198 198 198 196 191 188 185 182 180 181 182 182 180 179 181 184 186 186 186 187 188 189 189 189 193 196 196 197 197 195 195 197 200 203 205 206 210 212 211 209 210 212 213 214 216 221 226 228 230 232 235 239 243 246 249 252 256 258 259 258 259 261 264 264 265 268 273 280 287 292 298 301 301 300 300 300 297 293 296 300 293 281 279 286
200 198 195 191 188 185 182 179 177 177 177 178 178 177 176 178 181 181 181 182 182 182 184 184 183 186 192 195 198 199 196 195 196 199 202 203 206 209 211 209 208 209 210 212 216 223 229 230 229 232 237 240 243 245 246 247 247 248 250 250 250 253 258 261 262 271 281 288 295 301 303 303 301 301 307 313 314 311 308 316 326 317 301 293 296
196 189 182 179 178 177 176 174 172 173 173 172 170 171 174 176 177 176 177 177 175 172 175 178 177 180 186 190 192 195 197 197 197 200 203 206 207 209 210 210 209 208 209 212 218 224 228 228 227 231 237 241 243 243 243 243 245 249 254 254 255 257 261 265 271 281 290 297 303 304 301 299 300 306 314 319 318 316 316 324 332 331 326 315 306
181 174 170 170 170 169 167 166 165 164 164 164 163 165 170 172 171 170 170 170 167 163 165 170 172 176 183 188 190 193 198 201 201 202 205 208 209 209 210 211 212 212 210 211 215 222 226 227 229 233 238 240 239 237 237 240 244 252 260 262 264 267 271 277 285 292 297 301 301 298 297 302 304 308 315 321 320 316 312 314 317 319 319 317 315
166 161 160 161 160 160 158 157 158 157 158 160 159 158 161 163 162 162 161 160 160 158 158 162 163 166 171 177 183 189 194 200 204 204 203 204 207 210 210 211 213 213 210 209 213 219 225 228 231 235 237 234 230 226 228 235 240 249 261 267 270 274 280 288 293 296 298 297 295 295 299 298 295 299 308 312 312 311 312 314 315 316 317 316 315
155 152 153 153 152 152 151 151 152 152 153 154 153 151 152 153 153 156 158 158 159 159 160 160 159 157 158 162 171 180 187 194 201 204 202 199 201 205 206 203 204 207 209 212 217 221 227 230 229 228 226 222 218 218 224 230 237 249 261 266 270 276 283 288 291 291 288 280 278 282 279 277 289 300 306 307 307 309 312 314 316 318 317 314 313
149 147 148 147 146 145 144 144 145 146 148 150 149 147 148 149 149 152 157 161 162 161 160 160 161 163 164 165 171 182 190 192 194 197 200 198 196 199 200 197 194 198 205 212 217 220 221 218 211 213 218 218 216 219 225 231 242 258 261 259 264 270 271 270 271 271 264 258 260 263 263 274 295 306 310 311 312 315 317 317 317 319 319 317 315
145 145 143 142 142 139 135 135 137 139 143 145 145 146 148 150 152 156 161 164 163 161 161 163 164 170 178 179 180 187 194 197 195 193 194 196 195 196 198 198 197 197 200 203 203 200 199 198 198 204 210 213 214 218 226 240 251 250 243 239 240 239 238 243 250 254 254 254 258 263 268 280 296 307 314 318 318 321 322 319 318 320 322 320 316
136 134 132 132 132 131 131 132 133 135 137 140 142 146 150 154 156 159 162 162 161 161 164 165 166 174 183 184 183 186 190 194 195 194 193 195 194 192 194 198 200 198 196 195 192 188 188 191 194 196 197 200 209 220 234 246 247 238 230 229 228 227 233 244 249 252 258 264 269 273 275 280 294 308 316 318 320 323 324 320 318 320 322 319 313
110 109 112 118 124 130 133 132 131 132 135 139 142 147 152 155 153 154 158 160 160 160 163 166 170 176 180 178 177 178 182 189 195 196 196 196 193 190 192 197 199 199 197 194 189 187 189 188 184 184 189 197 211 227 235 236 235 232 230 231 233 235 241 248 253 259 266 270 272 276 281 289 304 313 316 319 322 324 322 319 318 320 320 316 310
107 114 121 127 132 135 134 132 132 133 135 138 142 147 154 157 155 151 153 159 162 161 162 167 176 183 185 182 179 178 181 190 199 201 200 199 196 193 193 194 196 200 201 199 193 187 186 185 183 185 194 206 216 221 221 222 228 233 237 241 244 244 247 254 258 260 259 255 259 285 309 311 314 317 318 321 324 322 320 321 322 320 318 315 309
124 131 134 135 137 138 135 134 136 137 137 138 137 138 144 153 158 156 154 159 166 168 170 173 181 192 197 193 192 196 201 202 202 202 200 200 202 202 200 198 197 199 200 200 196 190 186 186 190 197 204 208 212 216 218 223 232 240 246 249 250 250 253 255 251 240 222 217 320 342 340 333 327 323 322 324 326 327 328 327 323 319 318 316 313
132 136 137 139 143 142 140 139 138 137 138 136 133 129 129 136 147 153 156 161 166 169 173 175 177 188 199 196 195 203 211 207 198 192 194 199 204 205 204 201 197 195 195 194 192 191 190 192 198 207 213 215 219 221 226 235 242 245 247 247 247 247 244 230 206 190 185 1 360 358 353 346 339 333 331 332 332 331 327 321 319 322 324 321 317
136 139 141 144 147 145 142 141 139 137 136 136 135 133 127 121 122 128 140 151 157 159 163 165 163 167 184 193 193 196 200 197 188 182 185 191 194 195 198 196 190 190 193 193 191 192 195 197 203 214 222 225 228 232 239 244 242 236 231 230 230 228 217 194 173 157 15 12 8 358 349 350 351 345 339 335 331 323 317 317 324 329 327 326 328
141 142 144 147 148 146 144 142 141 141 139 137 135 133 129 123 117 114 118 128 138 144 147 149 154 155 162 180 188 188 187 184 181 179 182 182 178 180 186 187 185 187 192 192 189 190 194 201 214 229 232 227 227 235 248 245 215 177 167 166 162 170 168 152 129 91 54 35 12 356 350 351 348 339 330 324 319 315 317 325 332 331 329 332 334
143 145 148 148 143 140 141 142 142 141 141 139 138 137 138 139 138 134 128 123 125 132 136 140 150 155 155 167 179 182 179 178 179 181 182 180 176 177 180 181 182 187 193 194 192 191 194 204 221 238 233 203 190 160 116 115 115 109 90 70 87 124 140 135 120 83 18 352 326 308 314 328 328 320 313 311 313 319 331 335 332 332 336 335 330
138 141 145 143 136 134 139 142 142 141 141 143 145 146 149 153 153 151 147 142 135 134 136 140 147 153 156 164 172 175 177 179 180 181 183 183 181 182 181 179 180 184 189 194 195 193 195 204 213 204 159 140 136 120 107 97 75 46 18 9 41 124 143 145 105 4 359 344 320 313 321 324 316 306 305 310 320 335 340 336 333 336 336 329 323
135 138 141 140 136 136 139 143 145 148 148 148 150 153 155 158 159 158 157 156 151 147 148 150 152 156 159 162 163 165 170 175 177 179 184 186 186 187 184 181 181 183 187 192 195 197 201 208 208 188 162 146 138 125 109 91 71 63 30 342 324 314 116 79 28 16 15 7 357 357 355 333 311 308 312 323 337 343 339 336 335 332 327 324 322
135 138 139 140 139 139 142 146 150 153 153 152 153 155 157 160 162 162 161 159 156 156 160 162 161 159 158 158 161 164 166 170 174 178 181 184 186 189 190 189 187 187 189 192 198 203 209 211 205 193 178 166 158 151 149 165 191 43 30 21 33 122 88 39 10 6 17 13 355 346 339 322 315 318 328 339 343 341 336 332 328 323 323 326 327
135 138 140 143 145 143 144 147 149 151 153 155 157 158 157 160 165 168 166 161 160 165 170 170 170 167 163 161 164 167 167 168 171 175 178 181 184 187 191 193 192 191 194 200 205 207 207 205 201 192 179 172 169 171 187 223 251 270 297 314 259 247 293 340 345 354 7 338 318 308 304 312 322 329 336 338 338 336 330 324 320 321 326 330 331
134 137 140 144 145 144 144 146 148 150 153 157 160 160 157 159 164 168 164 160 163 171 174 173 173 174 171 170 170 168 166 168 173 177 181 185 188 188 189 190 193 200 208 213 211 207 200 193 188 184 179 177 180 188 209 239 255 266 278 280 262 251 258 299 321 323 317 311 304 289 283 307 323 324 327 333 336 330 322 320 324 328 330 331 333
134 136 140 142 142 141 143 145 147 151 155 159 161 161 160 162 165 165 160 157 163 172 175 174 176 180 181 181 180 178 175 178 183 187 189 191 193 193 193 191 193 201 209 211 210 207 199 189 184 185 190 198 210 221 240 254 258 263 275 276 252 234 234 281 310 311 305 303 298 286 281 299 304 309 324 333 332 326 323 326 331 334 332 334 337
132 131 134 138 139 138 139 143 147 152 159 165 168 169 168 166 165 163 159 158 165 172 173 175 181 187 189 189 190 190 190 190 191 193 195 196 198 200 201 200 199 201 205 208 206 199 193 188 188 191 197 212 228 232 237 244 247 250 256 255 240 232 241 264 282 292 299 296 290 277 261 279 302 320 331 330 326 328 332 333 332 332 334 337 340
129 126 124 129 134 135 136 141 147 150 156 165 171 174 174 168 163 161 159 159 164 168 169 172 182 190 193 193 193 193 193 193 192 193 196 200 204 205 206 207 208 206 207 215 211 199 191 189 191 195 206 228 236 233 233 237 243 246 244 238 232 232 238 242 237 249 287 295 266 189 165 318 328 335 331 323 326 334 336 333 331 334 336 338 340
129 127 122 124 130 132 134 142 150 153 156 160 160 158 156 155 154 155 155 158 162 164 165 169 178 186 190 191 189 187 186 189 191 193 197 204 210 212 215 219 219 213 214 227 224 207 196 190 192 200 218 232 234 234 232 232 234 232 224 222 225 228 230 233 232 236 251 242 201 192 321 325 329 328 319 319 327 332 330 331 334 335 334 336 339
126 124 124 134 141 140 143 152 156 155 157 158 153 146 144 145 147 150 154 157 160 163 166 171 176 179 181 184 184 183 181 182 189 197 205 210 212 213 214 218 218 216 219 223 211 198 190 188 190 191 198 212 221 223 218 214 214 210 208 216 230 232 233 240 238 234 235 231 232 269 301 306 312 315 311 313 321 325 329 333 333 330 333 339 339
120 115 114 126 133 133 137 143 142 139 138 137 137 137 139 140 143 148 153 156 158 162 169 174 176 176 178 181 185 187 186 183 185 193 205 214 218 215 206 199 203 209 209 199 189 184 183 183 181 173 173 189 200 201 200 206 216 220 220 228 233 231 235 241 231 221 219 224 239 268 285 289 295 298 296 306 320 327 330 329 327 330 338 341 334
137 130 121 119 121 123 125 126 127 128 127 123 123 126 130 134 137 141 148 154 159 164 170 175 176 178 180 183 188 193 196 197 198 199 202 211 217 213 205 199 199 202 199 191 186 185 184 182 181 178 173 174 179 186 199 213 233 248 261 270 257 246 247 240 219 217 228 240 259 278 285 290 295 291 287 303 322 328 325 321 325 335 338 332 326
135 138 134 130 127 126 124 121 123 127 128 125 125 127 130 136 140 140 145 154 161 166 172 174 174 176 179 182 188 195 200 207 212 214 213 214 216 214 211 208 205 202 199 193 188 186 184 185 192 197 187 175 179 199 224 262 283 286 295 296 272 256 258 258 253 258 267 271 282 290 292 295 296 289 285 301 318 320 318 320 328 335 329 322 324
75 106 120 123 121 121 123 123 124 128 131 134 138 140 140 145 150 152 151 153 157 164 171 175 177 180 182 184 191 201 206 209 212 214 214 215 218 225 224 212 201 196 193 189 184 185 190 197 203 201 196 192 197 210 234 268 275 272 277 275 253 245 254 261 264 272 279 284 290 294 294 294 288 274 273 292 306 314 319 324 331 330 324 321 328
66 77 95 103 105 112 125 129 124 128 139 146 149 151 155 156 154 153 154 155 159 166 174 177 179 182 187 192 196 201 203 203 203 206 210 213 216 222 218 202 191 187 190 191 190 193 201 202 199 197 197 198 203 216 237 253 253 253 263 264 252 246 249 253 260 271 279 287 295 297 292 286 275 262 260 276 298 317 328 329 328 325 322 325 330
108 95 102 109 108 109 127 139 139 135 139 145 151 160 168 166 158 156 161 170 179 186 191 190 189 191 196 201 204 203 203 204 207 209 208 203 200 202 201 195 191 192 195 196 197 201 201 195 191 192 194 196 199 204 215 229 243 256 266 264 256 252 252 255 267 279 287 294 300 298 289 281 271 255 247 265 304 325 329 325 323 324 325 327 331
123 121 128 140 144 139 140 149 154 150 140 146 152 158 162 161 161 164 173 188 202 209 211 212 207 199 190 184 185 191 196 204 211 216 215 209 203 200 198 195 193 192 190 188 190 196 195 188 184 185 188 190 189 190 206 239 259 263 263 260 258 258 261 267 276 285 293 299 300 293 284 277 261 236 228 268 316 323 319 316 319 324 326 329 336
Height
746 750 753 757 760 763 765 766 767 771 774 776 778 779 780 781 784 786 788 790 792 794 796 798 799 802 804 805 807 808 810 812 814 816 817 819 821 823 825 826 827 828 829 831 831 833 834 834 834 835 835 836 837 838 839 839 840 840 840 841 841 842 842 842 842 842 842 842 841 841 841 840 840 839 839 839 838 838 836 836 835 835 834 833 832
741 746 750 754 756 758 760 762 764 768 771 773 774 775 777 778 781 783 784 786 788 790 793 795 797 799 801 802 804 805 807 809 811 813 815 817 818 821 822 823 825 826 827 828 829 830 831 832 833 833 834 835 835 836 837 837 838 838 839 839 839 840 840 841 841 840 840 839 839 838 838 838 837 836 836 836 835 834 834 833 833 832 832 831 830
737 742 747 750 753 755 756 758 762 765 767 769 770 771 773 775 777 779 781 783 785 787 789 792 794 796 798 799 801 802 804 806 808 810 812 813 815 817 819 820 822 823 824 825 826 827 829 830 831 832 832 833 833 834 834 835 836 836 837 837 837 838 839 839 839 838 838 837 837 836 835 835 834 833 833 832 831 831 830 830 830 830 829 829 828
734 738 742 746 749 751 752 754 758 761 763 765 765 767 770 772 774 775 777 780 782 784 786 788 790 792 794 796 797 799 801 802 804 807 809 810 812 814 816 817 819 820 821 822 824 825 826 827 828 829 830 831 831 831 832 833 833 834 834 834 835 835 836 836 837 837 836 835 834 833 833 832 831 830 830 829 828 828 827 827 827 826 826 826 825
730 734 738 742 745 746 748 751 754 756 759 760 761 763 766 768 769 771 774 776 778 780 783 785 787 788 789 791 794 795 797 799 801 803 805 808 809 811 813 815 816 817 819 820 822 823 824 825 826 827 828 828 828 829 829 830 831 832 832 832 832 833 833 834 834 834 834 833 831 831 831 830 829 828 828 827 826 825 824 824 824 823 823 823 823
726 730 734 737 740 742 744 747 749 751 754 755 756 760 762 764 765 767 769 772 774 776 778 780 782 784 785 788 790 792 794 796 797 800 803 805 807 809 811 813 814 815 817 818 819 821 822 823 824 825 826 826 827 827 828 828 829 830 830 830 830 831 831 831 831 831 831 830 829 828 828 828 827 826 825 825 825 823 822 821 821 821 821 820 820
721 726 729 732 735 737 739 742 744 746 748 750 752 756 758 760 761 763 765 768 770 772 774 776 777 779 782 784 786 788 790 793 795 797 800 802 804 806 808 810 812 813 815 815 817 818 820 821 822 823 824 824 825 826 827 827 827 828 828 828 829 829 828 828 828 828 828 827 827 827 826 826 825 823 822 823 822 821 820 818 817 817 818 818 817
717 721 725 727 730 731 734 737 739 741 743 745 749 751 753 755 757 759 761 763 765 767 769 771 774 776 779 781 783 786 788 790 792 794 796 799 801 803 805 808 809 811 813 814 815 816 817 818 819 820 822 823 824 825 825 825 825 825 826 826 826 826 826 826 826 826 825 825 825 824 824 823 822 821 821 821 820 819 818 817 815 815 815 815 814
711 716 719 722 724 726 729 732 735 737 739 741 744 746 748 751 753 755 757 759 761 763 765 768 771 773 776 778 781 783 785 786 788 790 793 796 798 801 803 805 807 809 811 812 813 814 815 816 817 818 820 821 822 822 823 823 822 823 824 824 824 824 824 824 824 823 823 823 823 822 822 821 820 819 819 819 818 817 816 816 814 813 813 812 811
705 710 713 716 719 722 725 728 730 733 734 736 739 741 744 747 750 752 753 755 758 761 764 766 768 770 773 775 778 780 782 783 785 788 790 793 796 798 800 803 805 807 809 810 811 812 813 814 814 816 818 819 820 820 821 821 821 821 822 822 823 822 822 822 822 822 822 822 821 820 820 819 818 818 817 817 816 816 815 814 812 811 811 810 808
700 704 707 710 715 718 721 723 725 727 729 732 734 737 741 743 746 749 751 753 756 759 762 764 766 769 771 773 775 777 779 781 783 786 788 791 794 796 798 801 803 805 807 808 809 810 810 811 812 814 816 817 817 818 819 820 820 820 820 820 821 821 821 821 821 821 821 820 819 819 818 816 816 816 816 815 815 814 813 812 811 810 809 808 806
694 698 701 706 710 712 715 718 720 723 725 728 731 734 738 741 744 747 749 751 754 757 760 762 764 767 769 771 773 774 776 778 780 784 787 789 792 794 797 799 801 803 805 806 807 808 808 809 810 812 813 815 816 817 818 819 819 818 819 819 819 819 819 819 820 819 819 818 817 816 815 814 814 814 814 813 813 812 811 810 809 808 807 806 805
688 692 696 700 703 706 710 713 715 718 721 725 728 731 735 739 741 744 747 749 752 754 757 759 761 764 766 768 770 771 774 776 778 782 785 787 791 793 795 798 799 801 802 803 804 805 805 807 808 809 811 813 814 815 815 816 817 817 817 817 817 817 817 817 817 817 817 816 815 814 813 813 811 811 811 811 810 810 809 807 807 806 805 804 802
682 686 690 694 697 701 705 707 711 714 717 722 725 728 732 735 738 742 744 747 749 751 753 755 757 760 762 764 766 768 771 773 776 780 783 786 789 792 794 795 797 798 799 800 801 802 803 804 805 807 809 810 812 812 813 814 814 814 815 814 814 814 814 814 814 814 814 814 813 811 810 810 809 808 809 809 808 808 807 805 804 804 803 801 800
676 680 684 688 691 695 699 702 707 710 714 719 722 725 729 732 736 739 741 743 745 747 749 752 754 756 759 761 764 766 768 771 775 778 782 785 788 790 791 792 794 795 796 797 798 799 800 802 803 805 807 808 809 810 810 811 812 812 812 812 811 811 811 810 811 811 812 811 810 809 808 808 807 806 807 807 806 806 805 804 803 801 800 798 797
671 675 679 682 686 689 693 698 702 706 711 715 719 723 727 729 733 735 737 740 741 744 746 748 750 753 756 758 761 764 767 770 773 777 779 782 784 786 788 789 791 792 793 795 796 797 798 800 801 803 805 806 807 807 808 809 809 809 809 809 809 809 808 808 809 810 810 809 808 807 806 806 805 805 805 805 804 804 803 802 800 799 797 796 794
666 670 673 676 680 683 688 693 697 702 708 712 716 720 723 726 729 731 734 736 738 741 743 745 748 750 752 755 758 760 764 767 770 773 776 778 781 782 784 786 788 790 792 794 795 795 796 798 800 801 802 803 804 805 806 807 807 807 807 807 807 807 806 807 808 808 808 807 805 805 804 804 803 803 803 803 802 801 800 799 798 796 795 794 792
661 663 666 669 674 678 683 688 693 698 704 708 712 716 718 722 725 727 730 733 735 738 741 744 747 749 752 755 757 759 761 763 766 769 772 775 777 779 781 783 785 788 789 791 793 793 794 796 798 799 800 801 803 804 805 805 805 805 806 805 805 805 805 806 806 806 806 804 804 803 802 802 802 801 801 800 800 799 798 797 795 794 793 792 791
654 656 659 663 669 674 679 684 689 694 699 703 708 711 715 719 722 725 728 731 734 737 740 743 747 750 752 755 757 759 760 761 764 767 770 773 775 777 779 780 782 785 787 788 790 791 792 794 795 797 798 799 801 802 802 803 803 804 804 804 804 804 804 804 804 804 803 802 802 801 800 800 800 799 799 798 797 797 796 795 794 792 791 791 790
647 650 654 659 665 670 674 679 684 689 694 699 704 708 712 716 720 724 727 730 733 737 740 743 746 749 752 754 757 759 760 760 762 765 767 770 773 774 776 778 780 782 784 786 788 789 791 792 794 795 796 797 799 799 800 801 801 802 802 802 802 802 802 803 803 802 801 800 800 799 799 798 798 797 797 796 796 795 794 793 792 791 791 790 790
643 646 650 654 660 665 669 674 679 684 690 696 701 706 710 714 718 722 726 730 732 736 739 741 744 747 749 752 755 758 759 759 761 763 765 768 770 772 774 775 777 780 782 784 786 787 788 790 791 793 794 795 796 797 798 799 799 800 800 800 801 801 801 801 801 800 799 799 798 798 797 796 796 796 795 795 794 793 792 791 791 790 790 789 788
641 644 647 651 656 661 665 670 675 682 688 693 698 704 708 713 717 721 725 729 732 735 737 739 742 744 746 749 752 755 757 758 759 761 764 766 768 770 772 774 776 778 780 782 784 785 786 787 788 790 791 792 794 795 796 797 797 798 799 799 799 799 799 799 799 798 798 797 797 796 796 795 795 795 794 793 792 791 790 789 789 788 787 786 785
637 642 646 651 655 659 663 668 673 679 685 690 696 701 707 711 716 720 724 728 731 734 736 738 741 743 745 747 750 753 755 756 758 759 762 764 766 768 770 772 774 776 778 780 781 782 783 785 786 788 789 790 791 793 794 795 796 796 797 798 798 798 797 797 797 797 796 796 796 795 794 794 794 793 792 791 790 790 789 788 787 786 785 784 783
633 638 644 649 654 658 662 667 672 677 683 688 694 699 705 710 714 719 723 727 730 734 736 739 741 744 746 748 749 751 753 755 756 758 760 762 764 766 768 771 773 775 776 778 779 780 782 783 785 786 787 788 790 791 792 793 794 795 795 796 796 796 796 796 796 796 795 795 794 793 793 792 792 791 791 790 789 788 788 786 785 784 783 781 780
630 635 641 647 652 658 662 667 672 677 682 687 692 697 703 708 713 718 721 725 729 733 736 739 741 745 747 748 749 751 752 753 755 757 759 761 763 765 767 769 771 774 775 777 778 779 780 782 783 784 785 786 788 789 790 791 792 793 794 794 794 794 794 794 794 794 794 793 792 792 791 791 791 790 789 789 788 787 786 785 783 782 781 779 778
629 635 640 646 651 657 662 669 674 678 683 687 692 697 702 706 711 716 719 723 727 729 733 736 740 745 748 749 749 751 751 753 754 756 758 760 762 764 766 768 770 772 774 775 777 778 779 780 781 782 784 785 786 788 789 790 791 791 792 792 792 793 793 792 792 792 791 791 790 790 790 790 790 789 788 788 787 785 784 783 781 780 779 777 775
633 639 644 649 654 659 664 669 675 679 684 688 692 697 702 706 710 714 717 721 724 726 729 731 735 742 747 748 749 750 750 752 753 755 757 759 761 763 765 766 769 771 773 774 775 777 778 779 780 782 783 784 786 787 788 789 789 789 790 790 790 791 791 790 790 790 790 790 790 790 790 790 789 788 787 786 785 784 783 781 780 778 777 776 774
639 645 652 658 664 667 668 671 675 680 684 688 692 697 701 705 709 713 716 718 720 723 726 727 731 738 743 746 748 749 750 751 752 754 756 758 759 761 763 764 767 769 771 773 774 776 777 778 779 781 782 783 785 785 786 787 787 787 788 788 788 789 789 788 788 788 789 789 789 789 788 788 787 786 785 784 783 782 781 780 779 777 776 774 772
647 653 659 665 670 672 672 674 676 680 684 688 692 696 700 704 707 711 715 718 720 722 723 725 729 735 740 743 746 747 749 750 751 752 755 756 758 759 760 762 764 767 769 772 773 775 776 777 778 780 781 782 783 784 784 785 785 785 785 786 786 787 787 787 787 787 788 788 788 787 787 786 785 785 784 783 781 781 780 779 777 776 774 772 770
652 658 661 665 670 672 674 676 678 680 683 687 691 695 700 704 707 710 714 718 721 722 723 725 729 733 737 741 744 745 746 748 750 752 754 755 757 758 759 761 763 766 768 771 772 774 775 776 778 779 780 781 782 782 783 783 782 782 783 783 784 785 785 785 786 787 787 787 786 786 785 784 784 783 782 781 780 779 779 777 776 775 773 771 769
653 657 661 665 669 672 674 677 679 682 685 688 691 695 700 705 710 712 713 716 718 720 721 724 728 732 735 739 742 744 745 747 749 751 753 755 756 757 759 761 763 765 768 769 771 773 774 776 777 778 779 780 780 780 781 780 780 780 781 781 782 782 783 784 785 785 786 785 784 784 784 783 783 782 781 780 779 778 777 776 775 774 771 769 767
653 657 662 666 669 672 675 678 681 684 687 689 692 696 700 705 710 714 716 716 716 718 720 723 727 731 734 737 740 742 744 746 749 750 752 754 756 757 759 761 763 765 767 769 770 772 773 775 776 777 778 778 778 778 779 778 778 779 779 780 781 781 782 783 783 784 784 783 783 783 783 782 781 780 780 779 778 777 776 775 773 772 770 768 767
655 658 662 666 670 673 676 678 681 684 686 690 693 697 700 705 711 716 718 718 717 719 722 725 728 731 734 736 738 741 743 745 747 749 752 753 755 757 759 761 763 765 767 768 770 771 772 774 775 775 776 776 777 777 777 778 778 778 779 780 780 780 781 781 782 782 783 782 783 782 781 780 779 779 779 778 777 776 775 773 772 771 769 767 765
655 658 662 666 670 673 676 679 682 684 687 690 694 698 701 706 711 716 718 718 719 721 723 726 728 731 733 736 738 740 742 744 746 748 751 753 754 756 758 761 763 765 766 767 768 770 771 772 773 774 774 775 775 776 776 777 778 778 779 779 779 780 780 781 781 781 781 782 782 781 780 779 778 778 778 777 776 775 774 772 771 770 768 766 764
657 660 664 667 669 672 676 679 682 685 688 691 695 699 702 706 710 714 716 717 719 721 723 726 728 731 733 736 738 740 742 744 746 748 750 752 754 756 758 760 762 763 765 766 767 768 769 771 772 772 773 774 775 776 776 777 778 778 779 779 779 779 779 779 780 780 780 780 780 779 778 777 777 778 777 776 775 774 773 771 770 769 767 766 763
658 662 665 667 669 672 675 678 681 684 688 692 696 700 704 707 710 714 715 717 719 721 723 726 729 731 734 736 738 740 742 744 746 747 749 751 753 755 757 758 760 761 763 764 765 767 768 769 770 771 772 773 774 775 776 777 777 777 778 778 778 778 778 778 778 779 779 779 779 777 776 776 777 777 776 775 774 773 772 771 769 768 766 765 762
659 662 665 667 670 672 675 677 680 683 688 693 697 702 705 707 710 713 715 717 718 720 723 726 729 731 734 736 738 740 741 744 746 747 749 751 753 754 756 757 758 759 761 762 764 766 767 768 769 770 771 772 773 774 774 775 776 776 777 777 777 777 777 777 778 777 777 777 777 776 776 776 776 776 775 774 773 772 771 770 768 767 765 763 761
661 663 666 668 670 672 675 677 680 684 688 693 698 702 705 708 710 712 714 716 718 721 724 726 728 731 733 735 738 740 741 743 745 747 749 751 752 754 755 756 757 758 760 761 762 764 765 766 768 769 770 771 772 772 773 774 775 775 776 776 776 776 776 776 776 776 776 776 776 776 775 775 775 774 774 773 772 771 770 769 767 766 764 762 760
663 665 668 670 671 673 675 678 681 685 689 693 698 701 704 707 710 712 714 716 718 721 723 726 728 731 733 735 737 739 741 743 744 746 747 749 751 752 754 756 757 758 758 759 761 762 763 765 766 767 768 769 770 771 772 773 774 774 774 775 775 775 775 775 775 775 775 775 774 774 774 774 774 773 772 772 771 770 769 768 766 765 763 761 759
664 666 668 669 671 673 676 679 683 687 690 694 698 701 704 707 709 711 713 715 718 721 723 725 727 729 731 733 735 737 739 741 742 744 745 747 749 751 753 754 756 756 757 758 759 760 762 763 764 766 767 768 769 770 771 772 772 773 773 773 773 773 773 773 773 773 773 773 773 773 773 772 772 772 771 771 770 769 768 766 765 764 762 760 758
665 667 669 670 672 674 677 681 685 689 693 696 699 701 704 706 708 710 712 715 718 720 722 724 726 728 730 732 734 735 737 738 740 742 743 745 747 749 751 753 754 755 756 757 758 759 760 761 763 764 765 767 768 769 770 771 771 771 772 772 772 772 772 772 772 772 772 772 772 772 772 771 771 771 770 770 769 768 767 765 764 763 761 759 758
667 669 671 673 674 676 679 682 686 690 694 698 700 702 704 705 706 709 711 714 717 719 722 724 725 727 729 731 733 735 736 737 739 741 742 744 747 748 750 752 753 753 755 756 757 757 758 760 761 762 763 765 766 767 768 769 769 770 770 770 770 771 771 771 771 771 770 771 771 770 770 770 770 770 769 769 768 767 766 765 763 762 760 758 757
670 672 674 677 679 680 682 684 687 691 695 698 700 701 702 703 706 708 711 714 717 719 720 723 725 727 729 731 733 735 736 737 739 741 742 744 746 747 749 750 751 752 754 755 755 756 757 758 760 761 762 763 764 765 766 767 768 768 769 769 769 770 770 770 770 769 768 769 769 769 769 769 769 769 769 768 767 766 765 764 762 761 759 757 756
673 675 678 680 682 684 686 687 689 692 695 698 699 700 702 703 706 708 711 714 716 718 719 722 724 726 728 730 732 734 735 737 739 740 742 743 744 746 747 748 749 751 752 753 754 755 756 757 759 760 760 762 763 764 765 766 767 767 768 768 769 769 769 768 768 767 767 767 768 768 768 768 768 768 768 767 766 765 764 763 761 759 758 757 755
677 678 681 683 685 687 688 689 690 693 695 697 699 700 702 704 706 708 710 713 715 717 719 721 723 725 727 728 730 732 734 736 738 739 741 742 743 744 746 747 748 749 751 752 753 754 755 756 757 758 760 761 762 763 765 765 766 766 767 767 767 768 767 767 767 766 766 766 767 767 767 767 767 767 767 766 765 764 763 762 760 759 757 756 754
682 682 683 686 688 689 690 691 692 693 695 697 699 701 703 705 707 709 711 713 714 717 719 720 722 724 725 726 728 730 732 734 736 737 739 740 741 742 744 745 746 748 749 750 751 752 753 754 756 757 758 760 761 763 764 764 765 766 766 766 766 767 766 766 766 766 766 766 766 766 767 766 766 766 765 765 764 763 762 761 760 758 756 755 754
685 685 686 687 688 690 691 692 693 694 696 698 700 702 704 705 707 709 711 713 715 717 718 719 721 722 723 725 727 728 730 732 733 735 737 738 739 741 742 743 744 746 747 747 749 750 751 753 754 755 756 758 760 761 762 763 763 764 764 765 766 766 766 766 766 765 765 766 766 766 766 765 765 764 764 763 763 762 761 760 759 757 756 754 753
688 687 687 687 688 690 692 693 694 696 698 700 701 703 705 707 708 710 712 713 715 716 718 719 720 721 722 724 725 726 728 730 732 733 735 736 738 739 740 741 742 743 744 745 747 748 749 751 752 753 755 756 758 759 760 761 762 763 763 764 765 765 765 765 765 765 765 765 765 765 764 764 763 763 762 762 762 761 760 759 758 756 755 754 752
690 688 688 688 690 691 693 695 696 698 700 701 703 705 706 708 709 711 712 714 715 716 717 718 719 720 721 722 724 725 727 729 731 732 734 735 736 738 738 739 740 741 742 744 745 746 747 749 750 751 753 755 756 757 759 760 761 761 762 763 763 764 764 764 764 764 764 764 764 763 762 762 761 761 761 761 760 760 759 758 757 756 755 753 751
691 690 690 691 693 694 695 697 698 700 701 703 704 705 707 708 709 711 712 714 715 715 716 717 718 719 720 720 722 724 726 728 730 731 732 733 734 735 736 737 738 739 741 742 743 744 745 747 748 750 751 753 754 756 757 758 759 760 761 762 762 762 763 763 763 763 763 763 762 761 761 760 760 760 760 759 759 758 758 757 756 755 754 752 751
691 692 692 693 694 695 697 698 700 701 702 703 704 705 706 708 709 710 712 713 713 714 715 716 717 718 719 720 721 723 725 727 729 730 731 732 732 733 734 735 736 737 738 740 741 742 744 745 746 748 750 751 753 754 755 756 757 758 759 760 761 761 761 762 762 762 761 761 760 760 759 758 758 758 758 758 758 757 757 756 755 754 753 752 750